Terug naar catalogus

CZ-4 DEB

ActiefSSO
NORAD 26119·DEBRIS·🇨🇳 China

Gelanceerd Oct 14, 1999 vanaf Taiyuan Satellite Launch Center

Loading…

Volgende Passages (komende 24 uur)

TLE

VersSource: Space-Track

Epoch: Sep 14, 2026, 11:51 UTC

1 26119U 99057F   26257.49401471  .00000186  00000-0  18179-3 0  9995
2 26119  99.3746 146.5964 0486541 286.1375 255.9208 13.47579578297807

Volg CZ-4 DEB in realtime met AllMySat

Download on the App Store